[[{"header":{"parameterUnit":"m.s-1","parameterCategory":1,"la1":30.2991,"la2":30.254,"lo1":-89.0895,"lo2":-89.0444,"dy":0.0017,"dx":0.0017,"nx":28,"ny":28,"refTime":"2024-03-28T21:00:00:Z","depth":0,"parameterNumber":2,"parameterNumberName":"U-component_of_WINDS"},"data":[0,0,0,0,0,0,0,0,0,0,0,0,0,0,0,0,0,0,0,0,0,0,0,0,0,0,0,0,0,0,0,0,0,0,0,0,0,0,0,0,0,0,0,0,0,0,0,0,0,0,0,0,0,0,0,0,0,0,-2.1426,-2.1425,0,-2.1334,-2.1333,-2.1332,-2.1237,-2.1236,-2.1235,-2.1234,-2.1135,-2.1133,-2.1132,0,0,0,0,0,0,0,0,0,0,0,0,0,-2.1515,-2.1514,-2.1426,-2.1425,-2.1424,-2.1335,-2.1333,-2.1332,-2.1238,-2.1236,-2.1234,-2.1233,-2.1135,-2.1134,-2.1132,0,0,0,0,0,0,0,0,0,0,0,0,0,-2.1455,-2.1514,-2.1426,-2.1366,-2.136,-2.1335,-2.1333,-2.1332,-2.1238,-2.1236,-2.1234,-2.1232,-2.1136,-2.1134,-2.1132,-2.1157,0,0,-2.1125,-2.1124,0,0,0,0,0,0,0,0,-2.1459,-2.1452,-2.1376,-2.137,-2.1363,-2.1295,-2.1328,-2.1273,-2.1238,-2.1284,-2.1234,-2.1231,-2.1189,-2.1183,-2.117,-2.1153,-2.1148,-2.1125,-2.1124,-2.1123,-2.1122,0,0,0,0,0,0,0,-2.1463,-2.1456,-2.1389,-2.1375,-2.1367,-2.1342,-2.1332,-2.1318,-2.1249,-2.128,-2.1273,-2.1264,-2.1185,-2.1172,-2.1167,-2.1147,-2.1125,-2.1123,-2.1122,-2.1121,-2.1146,-2.1148,0,0,0,0,0,0,-2.1477,-2.146,-2.1392,-2.1387,-2.1407,-2.1342,-2.133,-2.1319,-2.1248,-2.1236,-2.1265,-2.1259,-2.1177,-2.1169,-2.1163,-2.1188,-2.1123,-2.1121,-2.112,-2.1144,-2.1147,-2.1149,0,0,0,0,0,0,-2.1479,-2.1472,-2.1396,-2.1421,-2.141,-2.1343,-2.1331,-2.1318,-2.1305,-2.1238,-2.1224,-2.1264,-2.1175,-2.1166,-2.116,-2.1183,-2.112,-2.1118,-2.1142,-2.1145,-2.1148,-2.1239,0,0,0,0,0,0,-2.1482,-2.1473,-2.1483,-2.1422,-2.1409,-2.1396,-2.1332,-2.1318,-2.1302,-2.1293,-2.1233,-2.1221,-2.1173,-2.1164,-2.1158,-2.1179,-2.1116,-2.114,-2.1143,-2.1147,-2.1233,-2.1244,-2.1254,0,0,0,0,0,-2.1486,-2.1511,-2.1484,-2.1477,-2.142,-2.1398,-2.139,-2.1334,-2.1304,-2.1313,-2.127,-2.1223,-2.1182,-2.1164,-2.1156,-2.1177,-2.1138,-2.1142,-2.1147,-2.1229,-2.1242,-2.1254,0,0,0,0,0,0,-2.1574,-2.1502,-2.1471,-2.1478,-2.1445,-2.1382,-2.1391,-2.1351,-2.1324,-2.1317,-2.1248,-2.1235,-2.1237,-2.1207,-2.1187,-2.1199,-2.1153,-2.1157,-2.1218,-2.1231,-2.1241,-2.1247,-2.1114,0,0,0,0,0,-2.1595,-2.1585,-2.1521,-2.1533,-2.1519,-2.1458,-2.1446,-2.1407,-2.1369,-2.1354,-2.131,-2.1274,-2.1253,-2.124,-2.1217,-2.1229,-2.1214,-2.124,-2.125,-2.1259,-2.1262,-2.1266,-2.1276,-2.1163,-2.1163,-2.1163,0,0,-2.1637,-2.1596,-2.1593,-2.155,-2.152,-2.1509,-2.1447,-2.1437,-2.1428,-2.1352,-2.1344,-2.1311,-2.1266,-2.1269,-2.1268,-2.1244,-2.1291,-2.1265,-2.1272,-2.127,-2.1271,-2.1282,-2.1292,-2.1166,-2.1166,-2.1165,0,0,-2.1708,-2.1676,-2.1683,-2.1654,-2.161,-2.157,-2.1572,-2.1515,-2.1491,-2.1482,-2.1425,-2.1413,-2.1378,-2.1348,-2.1329,-2.1391,-2.1346,-2.1385,-2.1438,-2.1442,-2.1451,-2.1459,-2.148,-2.1488,-2.1388,-2.1389,-2.1389,0,-2.1764,-2.1747,-2.1691,-2.1686,-2.1668,-2.1601,-2.1607,-2.1581,-2.1531,-2.152,-2.1494,-2.145,-2.1415,-2.141,-2.1426,-2.1412,-2.1411,-2.139,-2.1455,-2.1462,-2.1468,-2.1487,-2.1495,-2.1393,-2.1393,-2.1392,-2.1392,0,-2.1819,-2.1808,-2.1819,-2.1774,-2.1758,-2.1758,-2.1701,-2.1691,-2.1654,-2.1617,-2.1609,-2.1565,-2.1532,-2.1528,-2.1491,-2.1518,-2.1504,-2.1468,-2.142,-2.1485,-2.1501,-2.1508,-2.14,-2.1399,-2.1397,-2.1396,0,0,-2.194,-2.1867,-2.1871,-2.185,-2.1798,-2.1787,-2.1785,-2.1754,-2.1747,-2.1715,-2.171,-2.1684,-2.165,-2.1628,-2.1587,-2.1591,-2.1642,-2.1554,-2.1552,-2.1571,-2.1669,-2.1696,-2.1706,-2.1614,-2.1615,-2.1616,-2.1672,0,-2.2001,-2.1993,-2.1943,-2.1949,-2.1938,-2.1875,-2.1873,-2.184,-2.1805,-2.179,-2.1751,-2.1733,-2.169,-2.1676,-2.1678,-2.1636,-2.1661,-2.1631,-2.1607,-2.1607,-2.1619,-2.1714,-2.1742,-2.1798,-2.1679,-2.168,-2.1681,0,-2.2069,-2.2044,-2.205,-2.1998,-2.1991,-2.199,-2.1959,-2.1945,-2.1906,-2.1881,-2.1858,-2.1813,-2.1805,-2.1763,-2.1751,-2.1733,-2.172,-2.1698,-2.1699,-2.1693,-2.1646,-2.171,-2.1814,-2.1822,-2.1691,-2.169,-2.1689,0,-2.2156,-2.2123,-2.2122,-2.2107,-2.2046,-2.2047,-2.2022,-2.1981,-2.1967,-2.1939,-2.1928,-2.19,-2.1884,-2.1862,-2.181,-2.1785,-2.1804,-2.1758,-2.1781,-2.1783,-2.1786,-2.1787,-2.1889,-2.1782,-2.1782,-2.1781,-2.1781,0,-2.2227,-2.2233,-2.2161,-2.216,-2.2165,-2.2107,-2.2113,-2.2081,-2.2046,-2.2038,-2.1982,-2.1975,-2.1907,-2.1892,-2.1852,-2.1848,-2.1841,-2.1819,-2.1808,-2.1823,-2.1826,-2.1812,-2.1807,-2.1784,-2.1783,-2.1783,-2.1782,0,-2.2324,-2.2276,-2.2271,-2.2215,-2.2201,-2.2207,-2.2159,-2.2155,-2.2119,-2.2108,-2.2103,-2.2044,-2.2024,-2.1971,-2.1936,-2.1908,-2.1915,-2.1895,-2.1929,-2.1921,-2.1948,-2.1946,-2.2043,-2.2053,-2.1942,-2.1943,-2.1944,0,-2.2371,-2.2375,-2.232,-2.2311,-2.2289,-2.2275,-2.2261,-2.2205,-2.2191,-2.2149,-2.215,-2.2126,-2.2103,-2.2073,-2.2027,-2.2,-2.1978,-2.2014,-2.1973,-2.1989,-2.1977,-2.1977,-2.1976,-2.2023,-2.2024,-2.2025,-2.2026,0,-2.2461,-2.2438,-2.2419,-2.2394,-2.2378,-2.2354,-2.2327,-2.2323,-2.226,-2.2248,-2.2228,-2.221,-2.2176,-2.2152,-2.2119,-2.2091,-2.2048,-2.204,-2.2044,-2.2059,-2.2077,-2.2067,-2.1952,-2.2037,-2.2036,-2.2036,-2.2035,-2.2035,-2.2533,-2.2534,-2.2496,-2.2477,-2.2452,-2.2428,-2.2423,-2.2386,-2.2369,-2.2338,-2.2306,-2.2289,-2.225,-2.2201,-2.2176,-2.2161,-2.2139,-2.2145,-2.2146,-2.2148,-2.2154,-2.2082,-2.2155,-2.2155,-2.2154,-2.2154,-2.2154,0,-2.2619,-2.2592,-2.2576,-2.2541,-2.2527,-2.2491,-2.246,-2.2449,-2.2436,-2.2404,-2.2384,-2.2361,-2.2338,-2.2291,-2.2263,-2.226,-2.224,-2.2255,-2.2253,-2.2247,-2.2176,-2.2175,-2.2272,-2.2272,-2.2272,-2.2271,-2.2271,-2.2271,-2.2662,-2.266,-2.2633,-2.2618,-2.259,-2.2574,-2.256,-2.2537,-2.2512,-2.2489,-2.2471,-2.2441,-2.2403,-2.2373,-2.235,-2.2336,-2.2328,-2.2349,-2.2329,-2.2264,-2.2252,-2.2242,-2.224,-2.2348,-2.2348,-2.2401,-2.2402,-2.2402]},{"header":{"parameterUnit":"m.s-1","parameterCategory":1,"la1":30.2991,"la2":30.254,"lo1":-89.0895,"lo2":-89.0444,"dy":0.0017,"dx":0.0017,"nx":28,"ny":28,"refTime":"2024-03-28T21:00:00:Z","depth":0,"parameterNumber":3,"parameterNumberName":"V-component_of_WINDS"},"data":[0,0,0,0,0,0,0,0,0,0,0,0,0,0,0,0,0,0,0,0,0,0,0,0,0,0,0,0,0,0,0,0,0,0,0,0,0,0,0,0,0,0,0,0,0,0,0,0,0,0,0,0,0,0,0,0,0,0,2.9327,2.9326,0,2.9247,2.9246,2.9245,2.924,2.9241,2.9242,2.9243,2.9159,2.9156,2.9153,0,0,0,0,0,0,0,0,0,0,0,0,0,2.9477,2.9474,2.9327,2.9326,2.9325,2.9247,2.9246,2.9245,2.924,2.9241,2.9242,2.9243,2.916,2.9157,2.9153,0,0,0,0,0,0,0,0,0,0,0,0,0,2.9406,2.9473,2.9327,2.9313,2.9311,2.9247,2.9246,2.9244,2.924,2.9241,2.9242,2.9244,2.9161,2.9157,2.9152,2.9097,0,0,2.9138,2.9136,0,0,0,0,0,0,0,0,2.941,2.94,2.9316,2.9314,2.9312,2.9255,2.9268,2.9195,2.9239,2.9267,2.9243,2.9244,2.919,2.9183,2.9165,2.9093,2.9089,2.9138,2.9135,2.9133,2.9132,0,0,0,0,0,0,0,2.9415,2.9404,2.9295,2.9315,2.9312,2.9311,2.9303,2.9254,2.9222,2.9264,2.9264,2.9255,2.9189,2.9169,2.9163,2.9088,2.9138,2.9134,2.9131,2.9129,2.897,2.8969,0,0,0,0,0,0,2.9422,2.9408,2.9298,2.9293,2.9365,2.9308,2.9298,2.9272,2.9222,2.9216,2.9253,2.9255,2.9177,2.9168,2.916,2.9094,2.9133,2.9129,2.9126,2.8972,2.897,2.8968,0,0,0,0,0,0,2.9425,2.9412,2.9301,2.935,2.9336,2.9303,2.9274,2.9269,2.925,2.9214,2.9208,2.924,2.9177,2.9166,2.9113,2.9091,2.9127,2.9123,2.8973,2.8971,2.8969,2.896,0,0,0,0,0,0,2.943,2.9414,2.9391,2.935,2.9333,2.9255,2.9273,2.9267,2.9242,2.9243,2.9199,2.9193,2.9178,2.912,2.9109,2.9085,2.9119,2.8975,2.8972,2.897,2.8962,2.8957,2.8954,0,0,0,0,0,2.9435,2.9391,2.939,2.9377,2.9305,2.9254,2.9244,2.9228,2.924,2.9218,2.9196,2.9195,2.9095,2.9115,2.9102,2.9076,2.8976,2.8973,2.897,2.8964,2.8958,2.8954,0,0,0,0,0,0,2.9429,2.9385,2.9384,2.9325,2.9293,2.9253,2.9224,2.9222,2.9186,2.9188,2.9169,2.9159,2.9107,2.9086,2.9109,2.9022,2.9037,2.9031,2.9037,2.9032,2.9028,2.9034,2.9115,0,0,0,0,0,2.9421,2.9384,2.9347,2.9298,2.9283,2.9257,2.9234,2.9224,2.919,2.9177,2.915,2.9117,2.908,2.9054,2.9017,2.8959,2.8951,2.8936,2.8932,2.8928,2.8923,2.8895,2.8888,2.8957,2.8957,2.8957,0,0,2.9404,2.9375,2.9352,2.9297,2.9271,2.9233,2.9245,2.9204,2.9176,2.917,2.9119,2.9099,2.9062,2.9007,2.8981,2.8988,2.8903,2.8924,2.8922,2.8919,2.8891,2.8884,2.8878,2.8955,2.8955,2.8956,0,0,2.9353,2.9327,2.9285,2.926,2.9222,2.9206,2.9196,2.9157,2.9144,2.9093,2.9089,2.9056,2.8989,2.8964,2.8942,2.8887,2.8885,2.8875,2.8853,2.8826,2.882,2.8815,2.8798,2.8791,2.887,2.887,2.887,0,2.9336,2.9279,2.9264,2.9224,2.92,2.9195,2.9154,2.913,2.9082,2.9066,2.9075,2.8994,2.8968,2.8909,2.8896,2.8878,2.8868,2.888,2.8822,2.8817,2.8812,2.8795,2.8788,2.8869,2.8869,2.8869,2.887,0,2.9262,2.9222,2.9193,2.9148,2.9122,2.9081,2.9061,2.9036,2.9029,2.9012,2.8962,2.8932,2.889,2.8875,2.8867,2.8816,2.8821,2.8826,2.8841,2.8805,2.8789,2.8782,2.8868,2.8868,2.8869,2.8869,0,0,2.9203,2.9153,2.9142,2.9124,2.9083,2.9053,2.9013,2.8973,2.8953,2.8921,2.8888,2.8834,2.884,2.8815,2.8805,2.8781,2.8742,2.8789,2.8788,2.8783,2.8687,2.8684,2.8676,2.8741,2.874,2.8739,2.869,0,2.9149,2.9078,2.9065,2.9004,2.8969,2.8966,2.8931,2.8904,2.8888,2.8856,2.8838,2.8802,2.881,2.8796,2.8772,2.8752,2.8723,2.8755,2.8712,2.871,2.8722,2.8667,2.8663,2.8619,2.8684,2.8682,2.8682,0,2.9076,2.9044,2.898,2.8948,2.8932,2.8902,2.8866,2.8836,2.8805,2.8795,2.877,2.8764,2.8724,2.8742,2.8688,2.8711,2.8693,2.868,2.8678,2.8674,2.8694,2.8663,2.8604,2.8598,2.8671,2.8672,2.8673,0,2.9042,2.8983,2.8938,2.8921,2.8882,2.8861,2.8844,2.8814,2.8793,2.8762,2.8748,2.8712,2.8693,2.8666,2.8651,2.8665,2.8599,2.8615,2.8591,2.8592,2.8577,2.8578,2.8516,2.8564,2.8564,2.8564,2.8564,0,2.8983,2.8945,2.8922,2.8894,2.8852,2.8838,2.8797,2.878,2.8755,2.8724,2.8719,2.8691,2.8673,2.8643,2.8631,2.8589,2.858,2.8572,2.857,2.8573,2.8574,2.8561,2.8564,2.8562,2.8563,2.8563,2.8563,0,2.8938,2.8921,2.8872,2.884,2.8831,2.8801,2.8774,2.8748,2.8734,2.8696,2.8686,2.8663,2.8628,2.8611,2.8566,2.8558,2.8512,2.8511,2.8523,2.8522,2.85,2.8503,2.8427,2.8418,2.8471,2.8471,2.847,0,2.8902,2.8872,2.8838,2.8818,2.8801,2.8768,2.8747,2.8733,2.8711,2.8677,2.8655,2.862,2.8591,2.8535,2.8514,2.8481,2.848,2.8456,2.8475,2.848,2.8482,2.8484,2.8482,2.8453,2.8452,2.8452,2.8451,0,2.8841,2.8835,2.8804,2.8772,2.8747,2.872,2.8694,2.8678,2.866,2.8636,2.8601,2.8578,2.8535,2.8501,2.8467,2.845,2.8448,2.8446,2.8439,2.8442,2.8451,2.8448,2.8515,2.8447,2.8448,2.8448,2.8448,2.8448,2.88,2.8775,2.8748,2.8715,2.8695,2.8671,2.8646,2.863,2.86,2.8564,2.8558,2.8521,2.8495,2.8449,2.8431,2.8403,2.8408,2.8398,2.8395,2.8393,2.8393,2.8456,2.8397,2.8397,2.8397,2.8397,2.8397,0,2.874,2.8723,2.8693,2.8658,2.8633,2.8635,2.8607,2.8586,2.8554,2.853,2.8502,2.8463,2.8431,2.841,2.8378,2.8359,2.8358,2.8351,2.8353,2.835,2.8389,2.8399,2.8353,2.8353,2.8353,2.8353,2.8353,2.8353,2.8706,2.8665,2.8656,2.8606,2.859,2.8554,2.8539,2.8518,2.8499,2.8456,2.843,2.8416,2.8394,2.8361,2.8332,2.8327,2.8316,2.8309,2.8304,2.8342,2.8346,2.8351,2.836,2.8307,2.8307,2.8267,2.8267,2.8267]}]]